N510MV KILG-KOQU

Flight info

Callsign N510MV
Flight time 0h 58m
Altitude FL330
Route DCT ENO T358 LEEAH Q133 MYRCA Q430 RIFLE Q167 HOFFI DCT HTO V139 TRAIT DCT
Aircraft C510/L-VGDW/C

Departure

Time 2026-05-05 22:23
Airport Wilmington Airport (KILG)

Arrival

Time 2026-05-05 23:21
Airport Quonset State Airport (KOQU)
Time Latitude Longitude Altitude Speed Heading
2026-05-05 21:56 39.67266 -75.60012 63 ft 0 kts 192°
2026-05-05 22:16 39.67257 -75.60034 64 ft 2 kts 278°
2026-05-05 22:16 39.67261 -75.60063 64 ft 3 kts 277°
2026-05-05 22:16 39.67277 -75.60114 66 ft 8 kts 307°
2026-05-05 22:17 39.67301 -75.60160 66 ft 10 kts 301°
2026-05-05 22:17 39.67280 -75.60195 66 ft 8 kts 186°
2026-05-05 22:17 39.67248 -75.60199 66 ft 3 kts 207°
2026-05-05 22:17 39.67246 -75.60205 66 ft 1 kts 304°
2026-05-05 22:18 39.67274 -75.60206 66 ft 8 kts 12°
2026-05-05 22:18 39.67364 -75.60190 66 ft 16 kts
2026-05-05 22:18 39.67464 -75.60180 66 ft 14 kts
2026-05-05 22:18 39.67562 -75.60168 67 ft 17 kts
2026-05-05 22:19 39.67703 -75.60151 66 ft 23 kts
2026-05-05 22:19 39.67842 -75.60135 65 ft 19 kts
2026-05-05 22:19 39.67963 -75.60121 62 ft 16 kts
2026-05-05 22:19 39.68069 -75.60109 60 ft 15 kts
2026-05-05 22:20 39.68178 -75.60096 59 ft 17 kts
2026-05-05 22:20 39.68300 -75.60083 58 ft 19 kts
2026-05-05 22:20 39.68433 -75.60067 57 ft 20 kts
2026-05-05 22:20 39.68574 -75.60052 55 ft 20 kts
2026-05-05 22:21 39.68701 -75.60040 53 ft 17 kts
2026-05-05 22:21 39.68792 -75.60026 50 ft 9 kts
2026-05-05 22:21 39.68820 -75.60044 50 ft 2 kts 289°
2026-05-05 22:21 39.68823 -75.60075 50 ft 3 kts 271°
2026-05-05 22:22 39.68823 -75.60113 50 ft 7 kts 271°
2026-05-05 22:22 39.68797 -75.60164 51 ft 8 kts 205°
2026-05-05 22:22 39.68769 -75.60172 51 ft 0 kts 184°
2026-05-05 22:22 39.68726 -75.60177 52 ft 34 kts 185°
2026-05-05 22:23 39.68252 -75.60233 91 ft 94 kts 189°
2026-05-05 22:23 39.67521 -75.60236 437 ft 125 kts 181°
2026-05-05 22:23 39.66593 -75.60152 855 ft 151 kts 179°
2026-05-05 22:23 39.65520 -75.59953 1468 ft 166 kts 173°
2026-05-05 22:24 39.64477 -75.59622 2355 ft 160 kts 175°
2026-05-05 22:24 39.63415 -75.59543 2917 ft 169 kts 186°
2026-05-05 22:24 39.62165 -75.59439 3217 ft 199 kts 178°
2026-05-05 22:24 39.60841 -75.59202 3836 ft 206 kts 178°
2026-05-05 22:25 39.59332 -75.58925 3912 ft 236 kts 176°
2026-05-05 22:25 39.57747 -75.58597 4005 ft 229 kts 176°
2026-05-05 22:25 39.56273 -75.58290 4403 ft 211 kts 178°
2026-05-05 22:25 39.54924 -75.58017 4799 ft 193 kts 178°
2026-05-05 22:26 39.53679 -75.57763 5209 ft 179 kts 179°
2026-05-05 22:26 39.52514 -75.57520 5619 ft 164 kts 180°
2026-05-05 22:26 39.51450 -75.57300 6023 ft 153 kts 181°
2026-05-05 22:26 39.50429 -75.57101 6476 ft 159 kts 181°
2026-05-05 22:27 39.49352 -75.56893 7124 ft 161 kts 180°
2026-05-05 22:27 39.48276 -75.56669 7762 ft 162 kts 181°
2026-05-05 22:27 39.47236 -75.56062 8307 ft 189 kts 145°
2026-05-05 22:27 39.46651 -75.54479 8694 ft 222 kts 100°
2026-05-05 22:28 39.47002 -75.52561 9181 ft 234 kts 57°
2026-05-05 22:28 39.47881 -75.50833 9769 ft 235 kts 56°
2026-05-05 22:28 39.48692 -75.49080 10368 ft 235 kts 57°
2026-05-05 22:28 39.49490 -75.47283 10951 ft 237 kts 58°
2026-05-05 22:29 39.50274 -75.45480 11507 ft 238 kts 58°
2026-05-05 22:29 39.51068 -75.43652 12086 ft 239 kts 58°
2026-05-05 22:29 39.51853 -75.41840 12656 ft 238 kts 58°
2026-05-05 22:29 39.52641 -75.40014 13221 ft 239 kts 58°
2026-05-05 22:30 39.53431 -75.38191 13707 ft 241 kts 58°
2026-05-05 22:30 39.54227 -75.36347 14216 ft 242 kts 58°
2026-05-05 22:30 39.55031 -75.34488 14658 ft 245 kts 59°
2026-05-05 22:30 39.55834 -75.32630 15143 ft 245 kts 59°
2026-05-05 22:31 39.56640 -75.30753 15608 ft 246 kts 59°
2026-05-05 22:31 39.57455 -75.28862 16059 ft 248 kts 59°
2026-05-05 22:31 39.58266 -75.26979 16484 ft 250 kts 59°
2026-05-05 22:31 39.59089 -75.25066 16937 ft 252 kts 59°
2026-05-05 22:32 39.59889 -75.23208 17342 ft 253 kts 59°
2026-05-05 22:32 39.60678 -75.21371 17725 ft 254 kts 59°
2026-05-05 22:32 39.61510 -75.19431 18134 ft 256 kts 59°
2026-05-05 22:32 39.62337 -75.17500 18571 ft 256 kts 59°
2026-05-05 22:33 39.63183 -75.15530 18959 ft 258 kts 59°
2026-05-05 22:33 39.64043 -75.13528 19367 ft 259 kts 59°
2026-05-05 22:33 39.64890 -75.11545 19754 ft 261 kts 59°
2026-05-05 22:33 39.65739 -75.09562 20134 ft 262 kts 59°
2026-05-05 22:34 39.66600 -75.07557 20521 ft 263 kts 59°
2026-05-05 22:34 39.67469 -75.05518 20887 ft 264 kts 59°
2026-05-05 22:34 39.68336 -75.03489 21240 ft 266 kts 59°
2026-05-05 22:34 39.69207 -75.01455 21594 ft 267 kts 59°
2026-05-05 22:35 39.70079 -74.99406 21944 ft 268 kts 58°
2026-05-05 22:35 39.70949 -74.97369 22303 ft 269 kts 58°
2026-05-05 22:35 39.71831 -74.95304 22652 ft 270 kts 58°
2026-05-05 22:35 39.72717 -74.93222 22971 ft 272 kts 58°
2026-05-05 22:36 39.73609 -74.91128 23323 ft 273 kts 58°
2026-05-05 22:36 39.74498 -74.89034 23647 ft 274 kts 58°
2026-05-05 22:36 39.75396 -74.86925 23986 ft 275 kts 58°
2026-05-05 22:36 39.76287 -74.84830 24326 ft 275 kts 58°
2026-05-05 22:37 39.77173 -74.82734 24661 ft 275 kts 58°
2026-05-05 22:37 39.78078 -74.80602 24974 ft 276 kts 57°
2026-05-05 22:37 39.78975 -74.78481 25274 ft 278 kts 57°
2026-05-05 22:37 39.79887 -74.76333 25556 ft 279 kts 57°
2026-05-05 22:38 39.80786 -74.74209 25845 ft 280 kts 57°
2026-05-05 22:38 39.81703 -74.72047 26095 ft 282 kts 57°
2026-05-05 22:38 39.82616 -74.69884 26405 ft 282 kts 57°
2026-05-05 22:38 39.83523 -74.67732 26687 ft 283 kts 57°
2026-05-05 22:39 39.84435 -74.65570 26986 ft 283 kts 57°
2026-05-05 22:39 39.85354 -74.63390 27278 ft 282 kts 57°
2026-05-05 22:39 39.86272 -74.61212 27507 ft 285 kts 57°
2026-05-05 22:39 39.87195 -74.59029 27756 ft 286 kts 56°
2026-05-05 22:40 39.88116 -74.56842 28012 ft 286 kts 56°
2026-05-05 22:40 39.89033 -74.54656 28272 ft 287 kts 56°
2026-05-05 22:40 39.89954 -74.52467 28517 ft 287 kts 56°
2026-05-05 22:40 39.90878 -74.50262 28789 ft 287 kts 56°
2026-05-05 22:41 39.91792 -74.48078 29022 ft 287 kts 56°
2026-05-05 22:41 39.92714 -74.45874 29281 ft 287 kts 55°
2026-05-05 22:41 39.93628 -74.43701 29510 ft 288 kts 55°
2026-05-05 22:41 39.94544 -74.41522 29814 ft 285 kts 55°
2026-05-05 22:42 39.95452 -74.39347 30087 ft 284 kts 55°
2026-05-05 22:42 39.96342 -74.37216 30305 ft 285 kts 54°
2026-05-05 22:42 39.97246 -74.35049 30574 ft 284 kts 54°
2026-05-05 22:42 39.98145 -74.32897 30802 ft 284 kts 55°
2026-05-05 22:43 39.99038 -74.30762 31039 ft 283 kts 54°
2026-05-05 22:43 39.99933 -74.28611 31277 ft 282 kts 54°
2026-05-05 22:43 40.00802 -74.26518 31499 ft 282 kts 54°
2026-05-05 22:43 40.01679 -74.24420 31676 ft 282 kts 53°
2026-05-05 22:44 40.02533 -74.22363 31915 ft 281 kts 53°
2026-05-05 22:44 40.03432 -74.20215 32084 ft 282 kts 53°
2026-05-05 22:44 40.04316 -74.18088 32277 ft 282 kts 53°
2026-05-05 22:44 40.05190 -74.15968 32502 ft 280 kts 52°
2026-05-05 22:45 40.06832 -74.12019 32804 ft 282 kts 52°
2026-05-05 22:45 40.07720 -74.09885 32892 ft 286 kts 53°
2026-05-05 22:45 40.08617 -74.07721 32903 ft 290 kts 52°
2026-05-05 22:46 40.09521 -74.05549 32909 ft 295 kts 52°
2026-05-05 22:46 40.10448 -74.03306 32915 ft 299 kts 53°
2026-05-05 22:46 40.11384 -74.01046 32917 ft 304 kts 53°
2026-05-05 22:47 40.13269 -73.96482 32911 ft 312 kts 53°
2026-05-05 22:47 40.15185 -73.91830 32714 ft 325 kts 53°
2026-05-05 22:47 40.16140 -73.89521 32546 ft 332 kts 54°
2026-05-05 22:48 40.17157 -73.87042 32361 ft 338 kts 54°
2026-05-05 22:48 40.18179 -73.84566 32182 ft 344 kts 54°
2026-05-05 22:48 40.19203 -73.82065 32001 ft 349 kts 55°
2026-05-05 22:48 40.20249 -73.79515 31806 ft 348 kts 55°
2026-05-05 22:49 40.21282 -73.76976 31604 ft 347 kts 55°
2026-05-05 22:49 40.22304 -73.74489 31414 ft 345 kts 55°
2026-05-05 22:49 40.23331 -73.71976 31213 ft 343 kts 55°
2026-05-05 22:49 40.24331 -73.69522 31016 ft 341 kts 56°
2026-05-05 22:50 40.27431 -73.61936 30919 ft 339 kts 56°
2026-05-05 22:51 40.29501 -73.56856 30918 ft 340 kts 56°
2026-05-05 22:51 40.31571 -73.51763 30919 ft 341 kts 56°
2026-05-05 22:52 40.33636 -73.46677 30934 ft 341 kts 56°
2026-05-05 22:52 40.35735 -73.41501 30928 ft 342 kts 56°
2026-05-05 22:53 40.37819 -73.36344 30924 ft 343 kts 56°
2026-05-05 22:53 40.38874 -73.33743 30754 ft 348 kts 56°
2026-05-05 22:53 40.39983 -73.31006 30385 ft 354 kts 57°
2026-05-05 22:53 40.41093 -73.28250 30023 ft 358 kts 57°
2026-05-05 22:54 40.42231 -73.25445 29661 ft 360 kts 57°
2026-05-05 22:54 40.43267 -73.22863 29328 ft 361 kts 58°
2026-05-05 22:54 40.44363 -73.20130 28977 ft 361 kts 58°
2026-05-05 22:54 40.45421 -73.17496 28635 ft 361 kts 58°
2026-05-05 22:55 40.46409 -73.15040 28321 ft 361 kts 58°
2026-05-05 22:55 40.47495 -73.12333 27977 ft 360 kts 58°
2026-05-05 22:55 40.49540 -73.07222 27320 ft 357 kts 58°
2026-05-05 22:56 40.50656 -73.04432 26962 ft 354 kts 58°
2026-05-05 22:56 40.51755 -73.01678 26605 ft 353 kts 58°
2026-05-05 22:56 40.52861 -72.98923 26250 ft 352 kts 58°
2026-05-05 22:56 40.53944 -72.96203 25902 ft 352 kts 58°
2026-05-05 22:57 40.55037 -72.93460 25547 ft 351 kts 59°
2026-05-05 22:57 40.56117 -72.90763 25273 ft 352 kts 59°
2026-05-05 22:57 40.57213 -72.88004 25034 ft 357 kts 59°
2026-05-05 22:57 40.58326 -72.85200 24935 ft 357 kts 59°
2026-05-05 22:58 40.59410 -72.82469 24927 ft 354 kts 59°
2026-05-05 22:58 40.60486 -72.79755 24920 ft 352 kts 59°
2026-05-05 22:58 40.61576 -72.76998 24924 ft 350 kts 59°
2026-05-05 22:58 40.62659 -72.74277 24930 ft 349 kts 59°
2026-05-05 22:59 40.63736 -72.71552 24933 ft 347 kts 59°
2026-05-05 22:59 40.64799 -72.68865 24926 ft 346 kts 59°
2026-05-05 22:59 40.65870 -72.66154 24924 ft 346 kts 59°
2026-05-05 22:59 40.66941 -72.63440 24925 ft 345 kts 59°
2026-05-05 23:00 40.69151 -72.58154 24917 ft 340 kts 46°
2026-05-05 23:00 40.70849 -72.56166 24947 ft 332 kts 33°
2026-05-05 23:00 40.72579 -72.54299 24924 ft 333 kts 34°
2026-05-05 23:01 40.74327 -72.52430 24715 ft 340 kts 34°
2026-05-05 23:01 40.76107 -72.50514 24228 ft 340 kts 34°
2026-05-05 23:01 40.77837 -72.48627 23715 ft 330 kts 35°
2026-05-05 23:01 40.79537 -72.46782 23210 ft 322 kts 34°
2026-05-05 23:02 40.81284 -72.45156 22715 ft 312 kts 26°
2026-05-05 23:02 40.82857 -72.43305 22229 ft 314 kts 46°
2026-05-05 23:02 40.84259 -72.41281 21769 ft 308 kts 40°
2026-05-05 23:02 40.85724 -72.39373 21298 ft 304 kts 40°
2026-05-05 23:03 40.87198 -72.37505 20818 ft 301 kts 39°
2026-05-05 23:03 40.88683 -72.35658 20335 ft 298 kts 39°
2026-05-05 23:03 40.90142 -72.33854 19856 ft 296 kts 39°
2026-05-05 23:03 40.91591 -72.32069 19382 ft 295 kts 40°
2026-05-05 23:04 40.92911 -72.30089 18899 ft 294 kts 47°
2026-05-05 23:04 40.94400 -72.28523 18433 ft 287 kts 29°
2026-05-05 23:04 40.95898 -72.27134 17979 ft 288 kts 33°
2026-05-05 23:04 40.97361 -72.25653 17523 ft 287 kts 34°
2026-05-05 23:05 40.98864 -72.24079 17045 ft 287 kts 35°
2026-05-05 23:05 41.00339 -72.22499 16578 ft 286 kts 36°
2026-05-05 23:05 41.01808 -72.20912 16105 ft 285 kts 36°
2026-05-05 23:05 41.03260 -72.19342 15638 ft 283 kts 35°
2026-05-05 23:06 41.04717 -72.17761 15161 ft 282 kts 35°
2026-05-05 23:06 41.06104 -72.16127 14691 ft 283 kts 42°
2026-05-05 23:06 41.07392 -72.14366 14252 ft 281 kts 42°
2026-05-05 23:07 41.09821 -72.11023 13530 ft 274 kts 42°
2026-05-05 23:07 41.11056 -72.09317 13151 ft 272 kts 42°
2026-05-05 23:07 41.12271 -72.07643 12775 ft 270 kts 42°
2026-05-05 23:07 41.13575 -72.05835 12375 ft 269 kts 42°
2026-05-05 23:08 41.14790 -72.04153 12006 ft 272 kts 42°
2026-05-05 23:08 41.15990 -72.02496 11648 ft 276 kts 42°
2026-05-05 23:08 41.17187 -72.00836 11354 ft 277 kts 42°
2026-05-05 23:08 41.18370 -71.99194 11054 ft 278 kts 43°
2026-05-05 23:09 41.19589 -71.97501 10742 ft 279 kts 42°
2026-05-05 23:09 41.20812 -71.95801 10426 ft 280 kts 42°
2026-05-05 23:09 41.21984 -71.94168 10124 ft 280 kts 42°
2026-05-05 23:09 41.23239 -71.92423 9782 ft 281 kts 42°
2026-05-05 23:10 41.24512 -71.90656 9441 ft 282 kts 43°
2026-05-05 23:10 41.25785 -71.88883 9095 ft 282 kts 42°
2026-05-05 23:10 41.27017 -71.87162 8759 ft 282 kts 43°
2026-05-05 23:10 41.28273 -71.85411 8416 ft 282 kts 43°
2026-05-05 23:11 41.29562 -71.83612 8064 ft 281 kts 43°
2026-05-05 23:11 41.30861 -71.81799 7702 ft 280 kts 44°
2026-05-05 23:11 41.32124 -71.80032 7347 ft 280 kts 44°
2026-05-05 23:11 41.33361 -71.78303 7012 ft 279 kts 44°
2026-05-05 23:12 41.34572 -71.76606 6706 ft 277 kts 44°
2026-05-05 23:12 41.35834 -71.74841 6399 ft 275 kts 44°
2026-05-05 23:12 41.37093 -71.73083 6080 ft 273 kts 44°
2026-05-05 23:12 41.38342 -71.71329 5762 ft 272 kts 44°
2026-05-05 23:13 41.39575 -71.69601 5467 ft 271 kts 44°
2026-05-05 23:13 41.40825 -71.67850 5176 ft 270 kts 45°
2026-05-05 23:13 41.42063 -71.66113 4871 ft 270 kts 45°
2026-05-05 23:13 41.43306 -71.64365 4578 ft 269 kts 45°
2026-05-05 23:14 41.44530 -71.62642 4297 ft 269 kts 45°
2026-05-05 23:14 41.45761 -71.60917 4014 ft 269 kts 45°
2026-05-05 23:14 41.46986 -71.59187 3732 ft 268 kts 45°
2026-05-05 23:14 41.48205 -71.57474 3502 ft 266 kts 45°
2026-05-05 23:15 41.49431 -71.55747 3282 ft 264 kts 45°
2026-05-05 23:15 41.50876 -71.53710 3050 ft 262 kts 46°
2026-05-05 23:15 41.52084 -71.52009 3010 ft 256 kts 46°
2026-05-05 23:15 41.53198 -71.50432 2999 ft 244 kts 46°
2026-05-05 23:16 41.54264 -71.48927 2999 ft 233 kts 46°
2026-05-05 23:16 41.55291 -71.47474 2996 ft 221 kts 45°
2026-05-05 23:16 41.56266 -71.46081 2934 ft 214 kts 51°
2026-05-05 23:16 41.57028 -71.44555 2680 ft 213 kts 63°
2026-05-05 23:17 41.57699 -71.42953 2445 ft 211 kts 65°
2026-05-05 23:17 41.58336 -71.41412 2292 ft 205 kts 65°
2026-05-05 23:17 41.59006 -71.39825 2010 ft 207 kts 65°
2026-05-05 23:17 41.59620 -71.38310 1831 ft 188 kts 68°
2026-05-05 23:18 41.60191 -71.36922 1588 ft 181 kts 60°
2026-05-05 23:18 41.61003 -71.35896 1378 ft 178 kts 37°
2026-05-05 23:18 41.61871 -71.35073 1157 ft 153 kts 17°
2026-05-05 23:18 41.62709 -71.35058 1026 ft 123 kts 317°
2026-05-05 23:19 41.63121 -71.35744 833 ft 93 kts 258°
2026-05-05 23:19 41.62929 -71.36413 660 ft 80 kts 241°
2026-05-05 23:19 41.62944 -71.37217 604 ft 97 kts 261°
2026-05-05 23:19 41.62792 -71.38021 547 ft 93 kts 218°
2026-05-05 23:20 41.62235 -71.38470 566 ft 90 kts 210°
2026-05-05 23:20 41.61700 -71.38883 330 ft 91 kts 210°
2026-05-05 23:20 41.61126 -71.39300 333 ft 88 kts 210°
2026-05-05 23:20 41.60595 -71.39751 248 ft 91 kts 213°
2026-05-05 23:21 41.60120 -71.40173 107 ft 90 kts 212°
2026-05-05 23:21 41.59632 -71.40618 18 ft 75 kts 213°
2026-05-05 23:21 41.59374 -71.40850 27 ft 22 kts 215°
2026-05-05 23:21 41.59301 -71.40924 29 ft 7 kts 260°
2026-05-05 23:22 41.59310 -71.40960 29 ft 2 kts 312°
2026-05-05 23:22 41.59313 -71.40965 29 ft 2 kts 309°
2026-05-05 23:22 41.59333 -71.40991 29 ft 4 kts 322°
2026-05-05 23:22 41.59355 -71.41012 29 ft 3 kts 322°
2026-05-05 23:23 41.59372 -71.41029 29 ft 4 kts 326°
2026-05-05 23:23 41.59407 -71.41056 27 ft 8 kts 326°
2026-05-05 23:23 41.59456 -71.41105 25 ft 10 kts 325°
2026-05-05 23:23 41.59512 -71.41157 23 ft 8 kts 317°
2026-05-05 23:24 41.59502 -71.41206 24 ft 7 kts 233°
2026-05-05 23:24 41.59479 -71.41250 27 ft 0 kts 235°